FW0286 Weather Reports


time (UTC)temp
C
wind
direction
speed
KPH
gust
KPH
rain 1hr
cm
rain 24hr
cm
rain mn
cm
humidity
%
barometer
mb
20260506091954 16 12 0.0 0.0 0.00 0.00 0.00 84 1014.1
20260506091455 16 12 0.0 0.0 0.00 0.00 0.00 84 1014.1
20260506090948 16 11 0.0 0.0 0.00 0.00 0.00 83 1014.0
20260506090454 16 11 0.0 0.0 0.00 0.00 0.00 83 1014.1
20260506090450 16 11 0.0 0.0 0.00 0.00 0.00 83 1014.1
20260506085448 16 12 0.0 0.0 0.00 0.00 0.00 83 1014.2
20260506084932 16 12 0.0 0.0 0.00 0.00 0.00 83 1014.3
20260506084430 16 12 0.0 0.0 0.00 0.00 0.00 83 1014.3
20260506083930 16 11 0.0 0.0 0.00 0.00 0.00 83 1014.4
20260506083428 16 11 0.0 0.0 0.00 0.00 0.00 83 1014.3
20260506082922 16 11 0.0 0.0 0.00 0.00 0.00 83 1014.5
20260506082346 16 11 0.0 0.0 0.00 0.00 0.00 82 1014.5
20260506081846 16 11 0.0 0.0 0.00 0.00 0.00 83 1014.5
20260506081344 16 12 0.0 0.0 0.00 0.00 0.00 82 1014.6
20260506080834 16 12 0.0 0.0 0.00 0.00 0.00 82 1014.8
20260506080829 16 11 0.0 0.0 0.00 0.00 0.00 81 1014.7
20260506073241 16 11 0.0 0.0 0.00 0.00 0.00 81 1014.6
20260506072736 16 11 0.0 0.0 0.00 0.00 0.00 82 1014.6
20260506072222 16 11 0.0 0.0 0.00 0.00 0.00 82 1014.6
20260506071658 16 12 0.0 0.0 0.00 0.00 0.00 81 1014.6
20260506071152 16 12 0.0 0.0 0.00 0.00 0.00 81 1014.3
20260506071146 16 12 0.0 0.0 0.00 0.00 0.00 81 1014.2
20260506070140 17 11 0.0 0.0 0.00 0.00 0.00 81 1014.4
20260506062430 17 11 0.0 0.0 0.00 0.00 0.00 80 1014.7
20260506062350 17 11 0.0 0.0 0.00 0.00 0.00 79 1014.8
20260506061350 17 11 0.0 0.0 0.00 0.00 0.00 79 1014.8
20260506060850 17 12 0.0 0.0 0.00 0.00 0.00 78 1014.8
20260506060350 17 11 0.0 0.0 0.00 0.00 0.00 78 1014.9
20260506051234 18 13 0.0 0.0 0.00 0.00 0.00 76 1015.1
20260506050733 18 12 0.0 1.6 0.00 0.00 0.00 76 1015.2
20260506050226 18 12 0.0 1.6 0.00 0.00 0.00 76 1015.2
20260506044658 18 11 0.0 1.6 0.00 0.00 0.00 74 1015.1
20260506044654 18 11 0.0 1.6 0.00 0.00 0.00 75 1015.2
20260506044148 18 12 0.0 0.0 0.00 0.00 0.00 73 1015.1
20260506043752 18 11 0.0 0.0 0.00 0.00 0.00 74 1015.1
20260506042642 18 12 0.0 8.0 0.00 0.00 0.00 73 1015.2
20260506042134 18 12 0.0 8.0 0.00 0.00 0.00 73 1015.2
20260506041623 18 12 0.0 0.0 0.00 0.00 0.00 73 1015.1
20260506041102 18 12 0.0 0.0 0.00 0.00 0.00 72 1015.2
20260506040601 18 12 0.0 0.0 0.00 0.00 0.00 72 1015.2
20260506040100 18 12 0.0 0.0 0.00 0.00 0.00 72 1015.1
20260506035559 19 12 0.0 0.0 0.00 0.00 0.00 71 1015.2
20260506035053 19 11 0.0 0.0 0.00 0.00 0.00 72 1015.3
20260506034555 19 12 0.0 3.2 0.00 0.00 0.00 70 1015.2
20260506034550 19 11 0.0 0.0 0.00 0.00 0.00 71 1015.2
20260506034049 19 12 0.0 0.0 0.00 0.00 0.00 71 1015.2
20260506033025 19 11 0.0 3.2 0.00 0.00 0.00 69 1015.1
20260506032454 19 12 0.0 0.0 0.00 0.00 0.00 68 1015.0
20260506031956 20 12 0.0 0.0 0.00 0.00 0.00 68 1015.0
20260506031450 20 12 0.0 1.6 0.00 0.00 0.00 68 1014.9
20260506030951 20 12 0.0 1.6 0.00 0.00 0.00 68 1014.8
20260506030450 20 13 0.0 0.0 0.00 0.00 0.00 67 1014.9
20260506025942 20 12 0.0 0.0 0.00 0.00 0.00 65 1014.9
20260506025443 20 11 0.0 0.0 0.00 0.00 0.00 65 1014.9
20260506024915 20 12 0.0 6.4 0.00 0.00 0.00 64 1014.9
20260506024409 20 12 0.0 6.4 0.00 0.00 0.00 63 1015.0
20260506023909 20 12 0.0 6.4 0.00 0.00 0.00 64 1015.1
20260506023401 20 12 0.0 6.4 0.00 0.00 0.00 64 1015.3
20260506022859 20 12 0.0 9.7 0.00 0.00 0.00 63 1015.2
20260506022353 21 12 0.0 9.7 0.00 0.00 0.00 63 1015.2
20260506021838 21 11 0.0 4.8 0.00 0.00 0.00 63 1015.3
20260506021337 21 12 0.0 0.0 0.00 0.00 0.00 62 1015.3
20260506020809 21 11 0.0 1.6 0.00 0.00 0.00 63 1015.2
20260506020304 21 12 0.0 1.6 0.00 0.00 0.00 63 1015.2
20260506015750 21 11 0.0 3.2 0.00 0.00 0.00 62 1015.1
20260506015251 21 12 0.0 3.2 0.00 0.00 0.00 61 1014.9
20260506014742 21 11 0.0 0.0 0.00 0.00 0.00 61 1015.0
20260506014737 21 12 0.0 11.3 0.00 0.00 0.00 61 1014.9
20260506013729 21 12 0.0 11.3 0.00 0.00 0.00 60 1014.8
20260506013223 21 13 0.0 4.8 0.00 0.00 0.00 60 1014.8
20260506012710 22 12 0.0 8.0 0.00 0.00 0.00 59 1014.7
20260506012154 22 12 0.0 8.0 0.00 0.00 0.00 59 1014.6
20260506012148 22 12 0.0 0.0 0.00 0.00 0.00 60 1014.6
20260506011140 22 12 0.0 1.6 0.00 0.00 0.00 58 1014.5
20260506010641 22 12 0.0 1.6 0.00 0.00 0.00 58 1014.3
20260506010135 22 12 0.0 3.2 0.00 0.00 0.00 56 1014.2
20260506005611 22 13 0.0 3.2 0.00 0.00 0.00 56 1014.1
20260506005050 22 12 0.0 0.0 0.00 0.00 0.00 55 1014.0
20260506004550 22 12 0.0 0.0 0.00 0.00 0.00 53 1014.0
20260506004054 22 12 0.0 0.0 0.00 0.00 0.00 52 1013.8
20260506004048 22 12 0.0 0.0 0.00 0.00 0.00 51 1013.7
20260506003031 23 12 0.0 0.0 0.00 0.00 0.00 50 1013.8
20260506003024 23 12 0.0 0.0 0.00 0.00 0.00 48 1013.8
20260506001959 23 12 0.0 0.0 0.00 0.00 0.00 47 1013.9
20260506001450 23 12 0.0 0.0 0.00 0.00 0.00 47 1013.9
20260506000932 23 12 0.0 0.0 0.00 0.00 0.00 47 1013.8
20260506000425 23 12 0.0 0.0 0.00 0.00 0.00 47 1013.7
20260505235917 24 12 0.0 0.0 0.00 0.00 0.00 46 1013.6
20260505235354 24 12 0.0 0.0 0.00 0.00 0.00 44 1013.5
20260505234855 24 12 0.0 0.0 0.00 0.00 0.00 45 1013.5
20260505234355 25 11 0.0 0.0 0.00 0.00 0.00 44 1013.6
20260505233839 25 11 0.0 0.0 0.00 0.00 0.00 43 1013.6
20260505233339 25 12 0.0 0.0 0.00 0.00 0.00 42 1013.6
20260505232837 25 11 0.0 0.0 0.00 0.00 0.00 42 1013.6
20260505232329 25 12 0.0 0.0 0.00 0.00 0.00 41 1013.6
20260505231805 25 12 0.0 0.0 0.00 0.00 0.00 42 1013.7
20260505231303 25 13 0.0 0.0 0.00 0.00 0.00 42 1013.7
20260505231254 25 12 0.0 0.0 0.00 0.00 0.00 41 1013.7
20260505230250 26 12 0.0 0.0 0.00 0.00 0.00 40 1013.7
20260505225747 26 12 0.0 0.0 0.00 0.00 0.00 41 1013.7
20260505225740 26 12 0.0 0.0 0.00 0.00 0.00 40 1013.8
20260505224733 26 12 0.0 0.0 0.00 0.00 0.00 40 1013.7
20260505224226 26 12 0.0 0.0 0.00 0.00 0.00 42 1013.8
20260505223717 26 11 0.0 0.0 0.00 0.00 0.00 41 1013.8
20260505223203 26 13 0.0 0.0 0.00 0.00 0.00 39 1013.6
20260505222700 27 12 0.0 0.0 0.00 0.00 0.00 39 1013.7
20260505222154 27 12 0.0 1.6 0.00 0.00 0.00 39 1013.7
20260505221655 27 11 0.0 1.6 0.00 0.00 0.00 37 1013.7
20260505221153 27 12 0.0 0.0 0.00 0.00 0.00 37 1013.7
20260505220655 27 12 0.0 0.0 0.00 0.00 0.00 37 1013.7
20260505220147 27 11 0.0 0.0 0.00 0.00 0.00 37 1014.0
20260505220143 27 12 0.0 0.0 0.00 0.00 0.00 37 1014.0
20260505215133 27 11 0.0 0.0 0.00 0.00 0.00 37 1013.9
20260505214633 27 12 0.0 0.0 0.00 0.00 0.00 37 1014.0
20260505214123 27 13 0.0 0.0 0.00 0.00 0.00 38 1013.9
20260505213621 27 11 0.0 0.0 0.00 0.00 0.00 37 1013.9
20260505213113 27 11 0.0 0.0 0.00 0.00 0.00 36 1013.9
20260505212603 28 12 0.0 0.0 0.00 0.00 0.00 36 1014.1
20260505212103 27 13 0.0 1.6 0.00 0.00 0.00 37 1014.1
20260505211601 27 12 0.0 1.6 0.00 0.00 0.00 36 1014.2
20260505211055 28 12 0.0 0.0 0.00 0.00 0.00 37 1014.2
20260505210553 28 12 0.0 0.0 0.00 0.00 0.00 36 1014.3
20260505210051 28 12 0.0 6.4 0.00 0.00 0.00 37 1014.2
20260505210042 28 11 0.0 6.4 0.00 0.00 0.00 35 1014.3
20260505205027 27 11 0.0 6.4 0.00 0.00 0.00 36 1014.3
20260505204504 27 12 0.0 11.3 0.00 0.00 0.00 35 1014.4
20260505204005 28 12 0.0 11.3 0.00 0.00 0.00 36 1014.4
20260505203502 28 13 0.0 8.0 0.00 0.00 0.00 35 1014.4
20260505203001 27 11 0.0 0.0 0.00 0.00 0.00 36 1014.4
20260505202449 27 12 0.0 0.0 0.00 0.00 0.00 37 1014.4
20260505201942 27 12 0.0 0.0 0.00 0.00 0.00 38 1014.4
20260505201438 27 12 0.0 1.6 0.00 0.00 0.00 38 1014.6
20260505200929 27 12 0.0 1.6 0.00 0.00 0.00 36 1014.6
20260505200425 28 12 0.0 3.2 0.00 0.00 0.00 36 1014.6
20260505200402 28 11 0.0 0.0 0.00 0.00 0.00 36 1015.0
20260505200007 28 12 0.0 3.2 0.00 0.00 0.00 36 1014.8
20260505195355 28 12 0.0 1.6 0.00 0.00 0.00 36 1014.8
20260505194853 27 12 0.0 1.6 0.00 0.00 0.00 37 1014.9
20260505194351 27 12 0.0 0.0 0.00 0.00 0.00 37 1015.0
20260505193351 28 11 0.0 0.0 0.00 0.00 0.00 37 1015.1
20260505192850 28 12 0.0 3.2 0.00 0.00 0.00 38 1015.1
20260505192346 28 13 0.0 3.2 0.00 0.00 0.00 37 1015.2
20260505191848 28 12 0.0 0.0 0.00 0.00 0.00 35 1015.2
20260505191345 28 12 0.0 12.9 0.00 0.00 0.00 37 1015.4
20260505190827 28 12 0.0 12.9 0.00 0.00 0.00 37 1015.5
20260505190327 28 11 0.0 0.0 0.00 0.00 0.00 38 1015.5
20260505185825 28 13 0.0 0.0 0.00 0.00 0.00 42 1015.6
20260505185307 27 11 0.0 0.0 0.00 0.00 0.00 39 1015.8
20260505184804 27 12 0.0 1.6 0.00 0.00 0.00 40 1015.9
20260505184251 27 12 0.0 1.6 0.00 0.00 0.00 38 1015.9
20260505183728 27 13 0.0 0.0 0.00 0.00 0.00 39 1015.9
20260505183229 27 11 0.0 0.0 0.00 0.00 0.00 42 1016.0
20260505182721 27 11 0.0 0.0 0.00 0.00 0.00 38 1016.0
20260505182215 27 12 0.0 1.6 0.00 0.00 0.00 39 1016.0
20260505181716 27 11 0.0 1.6 0.00 0.00 0.00 39 1016.0
20260505181210 27 11 0.0 4.8 0.00 0.00 0.00 36 1015.9
20260505180653 27 12 0.0 4.8 0.00 0.00 0.00 38 1016.0
20260505180154 27 12 0.0 0.0 0.00 0.00 0.00 38 1015.9
20260505175655 27 12 0.0 0.0 0.00 0.00 0.00 37 1015.9
20260505175642 27 11 0.0 0.0 0.00 0.00 0.00 38 1016.1
20260505175246 27 11 0.0 0.0 0.00 0.00 0.00 37 1015.9
20260505174133 27 12 0.0 0.0 0.00 0.00 0.00 39 1016.0
20260505173629 27 11 0.0 0.0 0.00 0.00 0.00 37 1016.0
20260505173128 27 13 0.0 0.0 0.00 0.00 0.00 40 1016.3
20260505172614 27 12 0.0 11.3 0.00 0.00 0.00 41 1016.4
20260505172609 27 12 0.0 0.0 0.00 0.00 0.00 43 1016.4
20260505172214 27 12 0.0 11.3 0.00 0.00 0.00 43 1016.4
20260505171103 27 12 0.0 1.6 0.00 0.00 0.00 39 1016.5
20260505170603 27 13 0.0 1.6 0.00 0.00 0.00 38 1016.6
20260505170101 27 12 0.0 0.0 0.00 0.00 0.00 40 1016.6
20260505165554 27 12 0.0 0.0 0.00 0.00 0.00 41 1016.7
20260505165043 26 12 0.0 3.2 0.00 0.00 0.00 41 1016.7
20260505164541 26 12 0.0 3.2 0.00 0.00 0.00 37 1016.7
20260505164040 26 12 0.0 4.8 0.00 0.00 0.00 42 1016.8
20260505164035 26 11 0.0 3.2 0.00 0.00 0.00 40 1016.8
20260505163027 26 11 0.0 4.8 0.00 0.00 0.00 42 1017.0
20260505162528 26 12 0.0 1.6 0.00 0.00 0.00 39 1017.0
20260505162012 26 12 0.0 0.0 0.00 0.00 0.00 43 1017.2
20260505161512 26 12 0.0 0.0 0.00 0.00 0.00 48 1017.3
20260505160954 26 11 0.0 0.0 0.00 0.00 0.00 47 1017.2
20260505160451 26 12 0.0 0.0 0.00 0.00 0.00 48 1017.4
20260505152934 25 12 0.0 1.6 0.00 0.00 0.00 53 1017.4
20260505152431 25 11 0.0 0.0 0.00 0.00 0.00 54 1017.5
20260505152425 24 12 0.0 0.0 0.00 0.00 0.00 55 1017.5
20260505151910 24 11 0.0 0.0 0.00 0.00 0.00 57 1017.5
20260505151514 25 12 0.0 0.0 0.00 0.00 0.00 57 1017.5
20260505150903 24 11 0.0 0.0 0.00 0.00 0.00 57 1017.5
20260505140242 21 12 0.0 0.0 0.00 0.00 0.00 63 1017.3
20260505140238 22 12 0.0 0.0 0.00 0.00 0.00 63 1017.3
20260505130150 19 12 0.0 0.0 0.00 0.00 0.00 69 1017.3
20260505124648 17 12 0.0 0.0 0.00 0.00 0.00 74 1017.2
20260505123646 17 12 0.0 0.0 0.00 0.00 0.00 76 1017.2
20260505123556 17 12 0.0 0.0 0.00 0.00 0.00 73 1017.1
20260505123203 16 12 0.0 0.0 0.00 0.00 0.00 75 1017.1
20260505122700 16 12 0.0 0.0 0.00 0.00 0.00 74 1017.1
20260505121550 17 12 0.0 0.0 0.00 0.00 0.00 73 1017.2
20260505121051 17 11 0.0 0.0 0.00 0.00 0.00 70 1017.0
20260505120548 18 12 0.0 0.0 0.00 0.00 0.00 69 1017.1
20260505120046 17 11 0.0 0.0 0.00 0.00 0.00 68 1017.0
20260505115548 18 12 0.0 0.0 0.00 0.00 0.00 68 1017.0
20260505115542 18 12 0.0 0.0 0.00 0.00 0.00 68 1017.0
20260505114534 17 11 0.0 0.0 0.00 0.00 0.00 70 1017.0
20260505114034 17 12 0.0 0.0 0.00 0.00 0.00 70 1017.1
20260505113533 17 11 0.0 0.0 0.00 0.00 0.00 69 1017.0
20260505113026 17 11 0.0 0.0 0.00 0.00 0.00 71 1016.9
20260505112529 16 11 0.0 0.0 0.00 0.00 0.00 74 1016.9
20260505112022 15 12 0.0 0.0 0.00 0.00 0.00 78 1016.9
20260505111524 15 11 0.0 0.0 0.00 0.00 0.00 80 1016.8
20260505111030 14 12 0.0 0.0 0.00 0.00 0.00 84 1016.7
20260505111025 14 11 0.0 0.0 0.00 0.00 0.00 82 1016.7
20260505101954 12 11 0.0 0.0 0.00 0.00 0.00 88 1016.1
20260505101500 12 11 0.0 0.0 0.00 0.00 0.00 87 1016.0
20260505101456 12 12 0.0 0.0 0.00 0.00 0.00 88 1016.1
20260505100954 12 11 0.0 0.0 0.00 0.00 0.00 87 1016.0
20260505095954 12 11 0.0 0.0 0.00 0.00 0.00 86 1015.9
20260505095454 12 11 0.0 0.0 0.00 0.00 0.00 86 1015.8
20260505094953 13 11 0.0 0.0 0.00 0.00 0.00 86 1015.9
20260505094454 13 11 0.0 0.0 0.00 0.00 0.00 87 1015.9
20260505093952 13 11 0.0 0.0 0.00 0.00 0.00 87 1015.8
20260505093452 12 11 0.0 0.0 0.00 0.00 0.00 86 1015.8
20260505092951 13 12 0.0 0.0 0.00 0.00 0.00 86 1015.7
20260505092452 13 11 0.0 0.0 0.00 0.00 0.00 85 1015.7